This demonstration page uses our WeatherBlox Daily Observations layout. Learn more.

Left ArrowRight Arrow

44.8408, -93.29828

Hourly Observations for June 5, 2015

Temp ( °F °C ) Dew Point ( °F °C ) Humidity (%) Winds ( mph kmh ) Pressure ( in mb ) Visibility ( mi km ) Precip ( " mm )
12:53 am 00:53 Cloudy 66 18.9 61 16.1 84 84 Calm 30.06 1018 9 14 0.00 0.00
1:53 am 01:53 Cloudy 65 18.3 62 16.7 90 90 NNE 7 11 30.06 1018 10 16 0.00 0.00
2:53 am 02:53 Cloudy 63 17.2 60 15.6 90 90 N 6 9 30.08 1019 10 16 0.00 0.00
3:01 am 03:01 Cloudy 63 17.2 60 15.6 90 90 N 7 11 30.06 1018 10 16 0.00 0.00
3:14 am 03:14 Cloudy 63 17 61 16 94 94 N 6 9 30.06 1018 10 16 0.00 0.00
3:40 am 03:40 Cloudy 63 17 61 16 94 94 N 8 13 30.06 1018 10 16 0.00 0.00
3:53 am 03:53 Cloudy 62 16.7 60 15.6 93 93 N 7 11 30.08 1019 10 16 0.00 0.00
4:43 am 04:43 Mostly Cloudy 62 16.7 60 15.6 93 93 NW 5 7 30.09 1019 10 16 0.00 0.00
4:53 am 04:53 Cloudy 62 16.7 60 15.6 93 93 Calm 30.12 1020 10 16 0.00 0.00
5:45 am 05:45 Cloudy 62 16.7 59 15 90 90 NE 8 13 30.09 1019 10 16 0.00 0.00
5:53 am 05:53 Mostly Cloudy 62 16.7 59 15 90 90 ENE 7 11 30.12 1020 10 16 0.00 0.00
6:10 am 06:10 Cloudy 63 17 57 14 83 83 NE 10 17 30.12 1020 10 16 0.00 0.00
6:34 am 06:34 Mostly Cloudy 61 16 57 14 88 88 NE 9 15 30.12 1020 10 16 0.00 0.00
6:53 am 06:53 Mostly Cloudy 61 16.1 56 13.3 84 84 NE 8 13 30.14 1021 10 16 0.00 0.00
7:53 am 07:53 Mostly Cloudy 61 16.1 55 12.8 81 81 ENE 9 15 30.15 1021 10 16 0.00 0.00
8:31 am 08:31 Mostly Cloudy 64 17.8 56 13.3 75 75 VRB 6 9 30.15 1021 10 16 0.00 0.00
8:53 am 08:53 Cloudy 65 18.3 56 13.3 73 73 E 10 17 30.17 1022 10 16 0.00 0.00
9:53 am 09:53 Cloudy 64 17.8 56 13.3 75 75 ENE 8 13 30.18 1022 10 16 0.00 0.00
10:53 am 10:53 Cloudy 64 17.8 56 13.3 75 75 ENE 8 13 30.19 1022 10 16 0.00 0.00
11:53 am 11:53 Cloudy 66 18.9 56 13.3 70 70 NE 10 17 30.18 1022 10 16 0.00 0.00
12:53 pm 12:53 Mostly Cloudy 69 20.6 57 13.9 66 66 NE 10 17 30.18 1022 10 16 0.00 0.00
1:53 pm 13:53 Mostly Cloudy 70 21.1 56 13.3 61 61 E 13 20 30.17 1022 10 16 0.00 0.00
2:53 pm 14:53 Mostly Cloudy 74 23.3 56 13.3 54 54 NE 10 17 30.16 1021 10 16 0.00 0.00
3:53 pm 15:53 Mostly Cloudy 74 23.3 56 13.3 54 54 ENE 13 20 30.16 1021 10 16 0.00 0.00
4:53 pm 16:53 Mostly Cloudy 75 23.9 56 13.3 52 52 NE 10 17 30.14 1021 10 16 0.00 0.00
5:53 pm 17:53 Mostly Cloudy 74 23.3 55 12.8 52 52 ENE 10 17 30.13 1020 10 16 0.00 0.00
6:53 pm 18:53 Mostly Cloudy 74 23.3 55 12.8 52 52 E 12 19 30.13 1020 10 16 0.00 0.00
7:53 pm 19:53 Mostly Cloudy 73 22.8 54 12.2 51 51 ENE 12 19 30.13 1020 10 16 0.00 0.00
8:53 pm 20:53 Mostly Cloudy 71 21.7 54 12.2 55 55 E 9 15 30.13 1020 10 16 0.00 0.00
9:53 pm 21:53 Partly Cloudy 70 21.1 54 12.2 57 57 ENE 6 9 30.14 1021 10 16 0.00 0.00
10:53 pm 22:53 Partly Cloudy 67 19.4 53 11.7 61 61 E 7 11 30.14 1021 10 16 0.00 0.00
11:53 pm 23:53 Mostly Clear 66 18.9 51 10.6 59 59 E 9 15 30.13 1020 10 16 0.00 0.00

Powered by AerisWeather